TimeCDT,TemperatureF,Dew PointF,Humidity,Sea Level PressureIn,VisibilityMPH,Wind Direction,Wind SpeedMPH,Gust SpeedMPH,PrecipitationIn,Events,Conditions,WindDirDegrees,DateUTC
12:54 AM,10.0,6.1,84,30.03,10.0,Calm,Calm,-,N/A,,Clear,0,2013-03-22 05:54:00
1:54 AM,7.0,3.9,87,30.02,10.0,Calm,Calm,-,N/A,,Clear,0,2013-03-22 06:54:00
2:54 AM,9.0,6.1,88,30.02,10.0,NW,3.5,-,N/A,,Clear,310,2013-03-22 07:54:00
3:54 AM,9.0,5.0,84,30.02,10.0,Calm,Calm,-,N/A,,Clear,0,2013-03-22 08:54:00
4:54 AM,6.1,1.9,83,30.03,10.0,Calm,Calm,-,N/A,,Clear,0,2013-03-22 09:54:00
5:54 AM,3.0,-0.9,84,30.04,10.0,Calm,Calm,-,N/A,,Clear,0,2013-03-22 10:54:00
6:54 AM,8.1,6.1,92,30.05,10.0,Calm,Calm,-,N/A,,Mostly Cloudy,0,2013-03-22 11:54:00
7:54 AM,14.0,10.0,84,30.05,10.0,NW,6.9,-,N/A,,Overcast,320,2013-03-22 12:54:00
8:54 AM,21.0,16.0,81,30.04,10.0,WNW,6.9,-,N/A,,Overcast,300,2013-03-22 13:54:00
9:54 AM,24.1,18.0,77,30.04,10.0,NW,8.1,-,N/A,,Overcast,320,2013-03-22 14:54:00
10:54 AM,26.1,19.0,75,30.04,10.0,NW,6.9,-,N/A,,Overcast,320,2013-03-22 15:54:00
11:54 AM,28.0,19.9,72,30.04,10.0,NNW,5.8,-,N/A,,Overcast,330,2013-03-22 16:54:00
12:54 PM,28.9,19.9,69,30.03,10.0,NW,9.2,-,N/A,,Overcast,320,2013-03-22 17:54:00
1:54 PM,32.0,21.0,64,30.02,10.0,North,6.9,-,N/A,,Overcast,350,2013-03-22 18:54:00
2:54 PM,33.1,21.0,61,30.02,10.0,NNE,5.8,-,N/A,,Overcast,30,2013-03-22 19:54:00
3:54 PM,33.1,21.0,61,30.01,10.0,NNW,5.8,-,N/A,,Overcast,340,2013-03-22 20:54:00
4:54 PM,32.0,21.9,66,30.02,10.0,WNW,5.8,-,N/A,,Overcast,300,2013-03-22 21:54:00
5:54 PM,32.0,21.0,64,30.04,10.0,NW,9.2,-,N/A,,Overcast,320,2013-03-22 22:54:00
6:54 PM,32.0,21.0,64,30.06,10.0,WNW,8.1,-,N/A,,Overcast,300,2013-03-22 23:54:00
7:54 PM,30.0,21.0,69,30.07,10.0,NW,6.9,-,N/A,,Overcast,320,2013-03-23 00:54:00
8:35 PM,30.2,21.2,69,30.01,10.0,NNW,8.1,-,N/A,,Overcast,330,2013-03-23 01:35:00
8:54 PM,30.0,19.9,66,30.07,10.0,NW,8.1,-,N/A,,Overcast,320,2013-03-23 01:54:00
9:54 PM,28.9,19.9,69,30.08,10.0,North,6.9,-,N/A,,Overcast,10,2013-03-23 02:54:00
10:54 PM,28.0,19.0,69,30.08,10.0,North,9.2,-,N/A,,Overcast,10,2013-03-23 03:54:00
11:54 PM,27.0,18.0,69,30.09,10.0,NNW,8.1,-,N/A,,Overcast,330,2013-03-23 04:54:00